User: anonymous   Login
Location: Unspecified
(0.0000°N, 0.0000°E)
Time: 14:27:31
(UTC+00:00)
Language:

CUTE 1.7 + AOD 2 - Orbit

View from above orbital plane
View from above orbital plane
View from above satellite
View from above satellite

Ground track
Ground track

The orbit data is extracted from the following two-line orbital elements,

1 32785U 08021C   18021.19146816  .00000213  00000-0  28728-4 0  9991
2 32785  97.5536  40.3443 0013598 159.9120 200.2635 14.88048942527317
Epoch (UTC): 21 January 2018 04:35:42
Eccentricity: 0.0013598
inclination: 97.5536°
perigee height: 594 km
apogee height: 613 km
right ascension of ascending node: 40.3443°
argument of perigee: 159.9120°
revolutions per day: 14.88048942
mean anomaly at epoch: 200.2635°
orbit number at epoch: 52731

The dashed part of the orbit path shows where the satellite is in the earth's shadow,  

DLR